Location: Unspecified
(47.0653°N, 0.0000°E)
Time: 02:51:24
(UTC+00:00)

Cosmos 1302 Rocket - Visible Passes

Search period start: 04 April 2026 00:00
Search period end: 14 April 2026 00:00
Orbit: 753 x 771 km, 74.0° (Epoch: 29 March)

Date Brightness Start Highest point End Pass type
(mag) Time Alt. Az. Time Alt. Az. Time Alt. Az.
4 Apr 5.6 03:07:45 14° SSE 03:11:29 30° E 03:15:59 10° NE visible
4 Apr 4.6 04:48:24 10° SW 04:53:17 40° WNW 04:58:10 10° N visible
5 Apr 6.3 02:29:56 12° SE 02:32:49 18° E 02:36:15 10° NE visible
5 Apr 4.0 04:10:05 16° SW 04:14:11 66° WNW 04:19:22 10° NNE visible
6 Apr 4.1 03:32:12 26° S 03:35:12 75° ESE 03:40:23 10° NNE visible
7 Apr 4.9 02:54:15 29° SSE 02:56:20 44° ESE 03:01:14 10° NE visible
7 Apr 5.0 04:34:24 12° WSW 04:38:25 29° NW 04:42:57 10° N visible
8 Apr 5.6 02:16:15 23° ESE 02:17:36 26° E 02:21:48 10° NE visible
8 Apr 4.4 03:56:24 24° WSW 03:59:14 47° WNW 04:04:15 10° NNE visible
9 Apr 6.2 01:38:12 15° ESE 01:38:57 15° E 01:41:49 10° ENE visible
9 Apr 3.9 03:18:20 41° SW 03:20:11 78° WNW 03:25:23 10° NNE visible
10 Apr 4.2 02:40:14 52° SSE 02:41:14 63° ESE 02:46:21 10° NNE visible
10 Apr 5.4 04:20:22 13° W 04:23:37 22° NW 04:27:37 10° N visible
11 Apr 5.0 02:02:06 36° ESE 02:02:24 37° ESE 02:07:07 10° NE visible
11 Apr 4.8 03:42:13 25° W 03:44:21 34° WNW 03:49:04 10° N visible
12 Apr 5.8 01:23:55 22° E 01:23:55 22° E 01:27:34 10° NE visible
12 Apr 4.2 03:04:03 45° WSW 03:05:12 55° WNW 03:10:18 10° NNE visible
12 Apr 6.1 04:47:03 10° WNW 04:48:22 11° NW 04:49:41 10° NNW visible
13 Apr 6.5 00:45:43 12° E 00:45:43 12° E 00:47:09 10° ENE visible
13 Apr 3.8 02:25:50 79° SSW 02:26:11 89° E 02:31:23 10° NNE visible
13 Apr 5.8 04:05:58 11° W 04:08:52 17° NW 04:12:09 10° N visible
